1508000400.04,21654,14.25,74716.5,2.93,-21.97,-22.87,0,*73
1508000401.26,21655,14.25,74716.8,2.93,-21.93,-22.87,0,*76
1508000402.5,21656,14.31,74718.3,2.93,-21.77,-22.73,0,*74
1508000403.76,21657,14.25,74714.3,2.93,-21.67,-22.57,0,*72
1508000405.03,21658,14.25,74712.3,2.93,-21.83,-22.73,0,*71
1508000406.23,21659,14.25,74716.3,2.91,-21.93,-22.87,0,*78
1508000407.43,21660,14.31,74720.5,2.91,-22.03,-22.97,0,*79
1508000408.66,21661,14.25,74718.0,2.91,-21.73,-22.77,0,*72
1508000409.91,21662,14.25,74716.5,2.91,-21.83,-22.77,0,*7E
1508000411.14,21663,14.25,74718.8,2.91,-21.67,-22.63,0,*70
1508000412.4,21664,14.25,74714.5,2.91,-21.67,-22.47,0,*71
1508000413.63,21665,14.31,74718.8,2.91,-21.73,-22.77,0,*76
1508000414.86,21666,14.25,74714.8,2.91,-21.87,-22.67,0,*7F
1508000416.07,21667,14.25,74714.8,2.91,-21.73,-22.67,0,*75
1508000417.3,21668,14.25,74716.0,2.91,-21.53,-22.63,0,*7C
1508000418.56,21669,14.25,74722.3,2.91,-21.87,-22.77,0,*71
1508000419.79,21670,14.31,74724.5,2.91,-21.57,-22.53,0,*72
1508000421.05,21671,14.31,74722.5,2.91,-21.67,-22.47,0,*75
1508000422.31,21672,14.25,74716.5,2.91,-21.53,-22.47,0,*71
1508000423.54,21673,14.25,74716.5,2.91,-21.83,-22.67,0,*7F
1508000424.77,21674,14.25,74716.5,2.91,-21.87,-22.83,0,*76
1508000425.97,21675,14.25,74720.8,2.91,-22.03,-22.97,0,*7D
1508000427.2,21676,14.25,74720.5,2.91,-21.83,-22.93,0,*71
1508000428.45,21677,14.25,74720.5,2.91,-21.83,-22.77,0,*7A
1508000429.66,21678,14.25,74720.0,2.91,-21.93,-22.87,0,*7B
1508000430.88,21679,14.31,74726.5,2.89,-22.07,-22.87,0,*7D
1508000432.13,21680,14.25,74722.5,2.91,-21.83,-22.77,0,*72
1508000433.33,21681,14.25,74722.0,2.91,-21.73,-22.63,0,*79
1508000434.54,21682,14.25,74722.0,2.91,-21.93,-22.83,0,*7A
1508000435.8,21683,14.31,74724.3,2.89,-21.87,-22.83,0,*77
1508000437.03,21684,14.31,74726.3,2.91,-21.67,-22.53,0,*7A
1508000438.28,21685,14.25,74720.5,2.89,-21.67,-22.63,0,*71
1508000439.51,21686,14.25,74720.0,2.89,-21.47,-22.41,0,*70
1508000440.76,21687,14.25,74722.0,2.89,-21.57,-22.41,0,*70
1508000442.01,21688,14.25,74722.8,2.89,-21.77,-22.73,0,*7C
1508000443.24,21689,14.25,74720.0,2.89,-21.93,-22.87,0,*7C
1508000444.47,21690,14.25,74722.3,2.89,-21.93,-22.83,0,*70
1508000445.72,21691,14.25,74722.8,2.89,-21.87,-22.67,0,*7E
1508000446.94,21692,14.25,74722.3,2.89,-21.43,-22.41,0,*71
1508000448.17,21693,14.25,74722.3,2.89,-21.39,-22.37,0,*7C
1508000449.39,21694,14.25,74720.3,2.89,-21.43,-22.41,0,*77
1508000450.58,21695,14.25,74718.5,2.91,-21.39,-22.37,0,*73
1508000451.84,21696,14.25,74720.5,2.91,-21.33,-22.31,0,*7C
1508000453.07,21697,14.25,74722.0,2.91,-21.53,-22.53,0,*7F
1508000454.27,21698,14.25,74722.3,2.91,-21.39,-22.37,0,*7E
1508000455.52,21699,14.25,74722.3,2.91,-21.33,-22.31,0,*73
1508000456.73,21700,14.25,74720.8,2.91,-21.17,-22.27,0,*73
1508000457.95,21701,14.25,74722.3,2.91,-21.33,-22.37,0,*75
1508000459.2,21702,14.25,74722.5,2.91,-21.03,-21.97,0,*7C
1508000460.46,21703,14.25,74722.8,2.91,-21.23,-22.17,0,*74
1508000461.74,21704,14.25,74726.5,2.93,-21.53,-22.47,0,*73
1508000462.99,21705,14.25,74724.5,2.93,-21.33,-22.27,0,*72
1508000464.21,21706,14.25,74722.8,2.91,-21.33,-22.27,0,*73
1508000465.44,21707,14.25,74722.8,2.91,-21.57,-22.53,0,*73
1508000466.67,21708,14.25,74716.3,2.91,-21.23,-22.27,0,*7C
1508000467.87,21709,14.25,74720.3,2.91,-21.39,-22.37,0,*77
1508000469.1,21710,14.25,74720.5,2.91,-21.53,-22.53,0,*71
1508000470.39,21711,14.25,74722.3,2.93,-21.53,-22.47,0,*77
1508000471.65,21712,14.25,74726.0,2.91,-21.53,-22.47,0,*76
1508000472.88,21713,14.25,74726.0,2.91,-21.57,-22.53,0,*76
1508000474.1,21714,14.31,74730.8,2.91,-21.57,-22.53,0,*71
1508000475.31,21715,14.25,74726.8,2.91,-21.73,-22.53,0,*76
1508000476.57,21716,14.25,74722.5,2.91,-21.53,-22.47,0,*72
1508000477.8,21717,14.25,74722.0,2.91,-21.57,-22.53,0,*72
1508000479.02,21718,14.25,74724.5,2.93,-21.63,-22.57,0,*7C
1508000480.23,21719,14.25,74724.3,2.93,-21.39,-22.41,0,*75
1508000481.48,21720,14.25,74726.0,2.95,-21.33,-22.31,0,*74
1508000482.7,21721,14.25,74722.8,2.93,-21.39,-22.41,0,*7E
1508000483.96,21722,14.25,74722.3,2.91,-21.53,-22.47,0,*75
1508000485.16,21723,14.25,74720.8,2.91,-21.73,-22.67,0,*74
1508000486.42,21724,14.25,74726.8,2.91,-21.87,-22.77,0,*79
1508000487.65,21725,14.25,74724.8,2.95,-21.67,-22.63,0,*77
1508000488.9,21726,14.25,74728.0,2.93,-21.67,-22.57,0,*75
1508000490.12,21727,14.31,74728.8,2.93,-21.47,-22.41,0,*71
1508000491.36,21728,14.25,74722.3,2.95,-21.27,-22.21,0,*78
1508000492.61,21729,14.25,74722.5,2.93,-21.17,-22.31,0,*7D
1508000493.89,21730,14.25,74722.3,2.93,-21.53,-22.47,0,*74
1508000495.15,21731,14.25,74726.8,2.93,-21.67,-22.57,0,*73
1508000496.37,21732,14.25,74726.0,2.93,-21.63,-22.57,0,*74
1508000497.58,21733,14.25,74720.8,2.93,-21.39,-22.41,0,*7D
1508000498.8,21734,14.25,74720.0,2.93,-21.47,-22.41,0,*73
1508000500.08,21735,14.25,74720.0,2.93,-21.53,-22.47,0,*71
1508000501.29,21736,14.31,74720.8,2.91,-21.73,-22.63,0,*74
1508000502.49,21737,14.25,74714.3,2.91,-21.73,-22.67,0,*71
1508000503.72,21738,14.25,74720.0,2.91,-21.57,-22.63,0,*7C
1508000504.97,21739,14.25,74722.0,2.93,-21.53,-22.57,0,*7C
1508000506.25,21740,14.25,74722.0,2.93,-21.67,-22.47,0,*74
1508000507.47,21741,14.25,74720.0,2.95,-21.39,-22.31,0,*79
1508000508.69,21742,14.25,74716.5,2.93,-21.39,-22.41,0,*7B
1508000509.94,21743,14.25,74716.5,2.93,-21.53,-22.41,0,*76
1508000511.19,21744,14.25,74722.0,2.93,-21.47,-22.47,0,*72
1508000512.44,21745,14.25,74718.8,2.93,-21.67,-22.63,0,*77
1508000513.66,21746,14.25,74716.0,2.93,-21.63,-22.57,0,*77
1508000514.88,21747,14.25,74714.3,2.93,-21.17,-22.27,0,*72
1508000516.13,21748,14.25,74712.8,2.93,-21.33,-22.27,0,*7B
1508000517.35,21749,14.25,74712.0,2.93,-21.47,-22.41,0,*79
1508000518.6,21750,14.25,74716.3,2.93,-21.67,-22.57,0,*74
1508000519.85,21751,14.25,74716.5,2.93,-21.67,-22.63,0,*72
1508000521.07,21752,14.25,74716.8,2.93,-21.77,-22.63,0,*70
1508000522.3,21753,14.25,74720.8,2.93,-21.77,-22.63,0,*71
1508000523.59,21754,14.25,74720.8,2.93,-21.53,-22.47,0,*76
1508000524.8,21755,14.25,74722.5,2.93,-21.47,-22.41,0,*74
1508000526.03,21756,14.25,74716.8,2.95,-21.83,-22.63,0,*79
1508000527.22,21757,14.25,74716.0,2.95,-21.63,-22.57,0,*71
1508000528.42,21758,14.25,74716.0,2.95,-21.13,-22.07,0,*7C
1508000529.64,21759,14.25,74720.5,2.95,-21.03,-21.93,0,*72
1508000530.87,21760,14.25,74720.8,2.93,-21.39,-22.27,0,*7B
1508000532.12,21761,14.25,74724.8,2.95,-21.27,-22.31,0,*74
1508000533.37,21762,14.25,74722.3,2.97,-21.33,-22.27,0,*77
1508000534.56,21763,14.25,74724.3,2.95,-21.47,-22.41,0,*77
1508000535.79,21764,14.25,74720.0,2.95,-21.47,-22.31,0,*77
1508000537.0,21765,14.25,74718.3,2.93,-21.39,-22.41,0,*7E
1508000538.19,21766,14.25,74716.5,2.95,-21.39,-22.41,0,*7B
1508000539.44,21767,14.25,74714.8,2.97,-21.33,-22.27,0,*72
1508000540.73,21768,14.25,74718.5,2.93,-21.53,-22.47,0,*79
1508000541.93,21769,14.25,74722.0,2.95,-21.77,-22.57,0,*79
1508000543.18,21770,14.25,74720.3,2.93,-21.77,-22.77,0,*75
1508000544.45,21771,14.25,74718.5,2.93,-21.27,-22.21,0,*72
1508000545.69,21772,14.25,74712.0,2.93,-21.13,-22.21,0,*76
1508000546.92,21773,14.25,74720.5,2.95,-21.27,-22.27,0,*70
1508000548.17,21774,14.25,74722.8,2.95,-21.27,-22.31,0,*70
1508000549.39,21775,14.25,74722.5,2.97,-21.47,-22.41,0,*72
1508000550.61,21776,14.25,74724.5,2.97,-21.43,-22.41,0,*75
1508000551.83,21777,14.25,74724.3,2.97,-21.63,-22.57,0,*71
1508000553.06,21778,14.25,74724.8,2.97,-21.63,-22.53,0,*7A
1508000554.26,21779,14.25,74722.0,2.95,-21.77,-22.63,0,*7F
1508000555.45,21780,14.25,74722.3,2.95,-21.39,-22.41,0,*73
1508000556.67,21781,14.25,74722.8,2.95,-21.17,-22.21,0,*78
1508000557.93,21782,14.25,74722.0,2.95,-21.53,-22.47,0,*7B
1508000559.16,21783,14.25,74720.5,2.95,-21.47,-22.47,0,*7F
1508000560.39,21784,14.25,74722.8,2.95,-21.67,-22.63,0,*7C
1508000561.59,21785,14.25,74720.0,2.95,-21.63,-22.57,0,*7E
1508000562.81,21786,14.25,74720.0,2.95,-21.77,-22.77,0,*7A
1508000564.01,21787,14.25,74720.5,2.95,-21.63,-22.57,0,*7C
1508000565.24,21788,14.25,74718.5,2.95,-21.67,-22.63,0,*70
1508000566.49,21789,14.25,74718.8,2.95,-21.83,-22.77,0,*7E
1508000567.69,21790,14.25,74718.0,2.95,-21.93,-22.93,0,*7D
1508000568.88,21791,14.25,74722.3,2.95,-21.63,-22.41,0,*7C
1508000570.07,21792,14.25,74716.0,2.95,-21.39,-22.41,0,*70
1508000571.33,21793,14.25,74714.8,2.95,-21.53,-22.47,0,*7B
1508000572.53,21794,14.25,74718.5,2.95,-21.77,-22.63,0,*7C
1508000573.73,21795,14.25,74722.3,2.95,-21.63,-22.57,0,*7F
1508000574.92,21796,14.25,74726.0,2.95,-21.39,-22.41,0,*74
1508000576.19,21797,14.25,74726.3,2.93,-21.33,-22.31,0,*7E
1508000577.41,21798,14.25,74724.5,2.95,-21.33,-22.41,0,*70
1508000578.63,21799,14.25,74726.0,2.95,-21.63,-22.73,0,*75
1508000579.83,21800,14.25,74724.5,2.95,-21.77,-22.63,0,*7E
1508000581.06,21801,14.25,74722.8,2.95,-21.63,-22.47,0,*7C
1508000582.31,21802,14.25,74722.3,2.95,-21.53,-22.47,0,*7C
1508000583.56,21803,14.25,74722.3,2.95,-21.67,-22.73,0,*7D
1508000584.82,21804,14.25,74716.0,2.97,-21.57,-22.57,0,*7D
1508000586.04,21805,14.25,74716.0,2.97,-21.73,-22.67,0,*79
1508000587.27,21806,14.25,74718.0,2.95,-21.67,-22.57,0,*7E
1508000588.47,21807,14.25,74720.0,2.95,-21.77,-22.63,0,*79
1508000589.67,21808,14.25,74718.0,2.95,-21.93,-22.93,0,*73
1508000590.93,21809,14.25,74716.5,2.97,-21.87,-22.83,0,*74
1508000592.16,21810,14.25,74718.5,2.95,-21.93,-22.77,0,*70
1508000593.38,21811,14.25,74720.3,2.95,-21.77,-22.77,0,*7B
1508000594.61,21812,14.25,74718.0,2.95,-21.67,-22.63,0,*7C
1508000595.86,21813,14.25,74714.8,2.95,-21.83,-22.73,0,*76
1508000597.05,21814,14.25,74714.0,2.95,-21.93,-22.87,0,*7B
1508000598.28,21815,14.25,74716.8,2.95,-21.97,-22.87,0,*7E
1508000599.55,21816,14.25,74714.3,2.93,-21.83,-22.77,0,*71
1508000600.77,21817,14.25,74718.3,2.95,-21.77,-22.77,0,*7D
1508000601.97,21818,14.25,74718.5,2.95,-21.63,-22.57,0,*75
1508000603.25,21819,14.25,74718.3,2.93,-21.53,-22.47,0,*70
1508000604.5,21820,14.25,74722.8,2.93,-21.53,-22.41,0,*7C
1508000605.75,21821,14.25,74718.0,2.93,-21.53,-22.41,0,*7D
1508000606.97,21822,14.25,74722.0,2.95,-21.17,-22.21,0,*7E
1508000608.16,21823,14.25,74726.8,2.95,-21.47,-22.41,0,*7C
1508000609.38,21824,14.25,74726.3,2.95,-21.33,-22.27,0,*78
1508000610.66,21825,14.25,74726.5,2.97,-21.27,-22.21,0,*78
1508000611.86,21826,14.25,74724.5,2.95,-21.17,-22.11,0,*79
1508000613.12,21827,14.25,74722.3,2.97,-21.13,-22.17,0,*78
1508000614.34,21828,14.25,74724.8,2.95,-21.27,-22.27,0,*71
1508000615.53,21829,14.25,74724.3,2.95,-21.47,-22.41,0,*76
1508000616.73,21830,14.25,74720.3,2.95,-21.17,-22.07,0,*79
1508000617.98,21831,14.25,74722.5,2.95,-21.27,-22.31,0,*7E
1508000619.23,21832,14.25,74724.3,2.97,-21.57,-22.41,0,*7F
1508000620.45,21833,14.25,74726.5,2.95,-21.67,-22.57,0,*78
1508000621.68,21834,14.25,74722.8,2.97,-21.63,-22.53,0,*7D
1508000622.93,21835,14.25,74726.3,2.97,-21.27,-22.27,0,*7F
1508000624.18,21836,14.25,74726.5,3.01,-21.27,-22.21,0,*74
1508000625.41,21837,14.25,74730.5,2.97,-21.13,-22.07,0,*78
1508000626.66,21838,14.25,74724.8,2.97,-21.33,-22.27,0,*77
1508000627.86,21839,14.25,74726.8,3.01,-21.47,-22.37,0,*7A
1508000629.11,21840,14.25,74722.5,2.97,-21.23,-22.27,0,*79
1508000630.31,21841,14.25,74726.0,3.01,-21.47,-22.27,0,*74
1508000631.56,21842,14.25,74726.3,2.97,-21.57,-22.41,0,*78
1508000632.81,21843,14.25,74720.0,2.97,-21.57,-22.41,0,*79
1508000634.0,21844,14.25,74726.0,3.01,-21.43,-22.37,0,*74
1508000635.25,21845,14.25,74726.3,2.97,-21.33,-22.27,0,*7D
1508000636.5,21846,14.25,74728.3,3.01,-21.27,-22.21,0,*73
1508000637.7,21847,14.25,74720.5,3.01,-21.13,-22.07,0,*71
1508000638.93,21848,14.25,74722.5,2.97,-21.47,-22.27,0,*73
1508000640.15,21849,14.25,74726.3,2.97,-21.43,-22.27,0,*76
1508000641.4,21850,14.25,74720.5,2.97,-21.57,-22.41,0,*7B
1508000642.68,21851,14.25,74722.5,2.97,-21.27,-22.21,0,*7B
1508000643.93,21852,14.25,74720.3,2.97,-21.33,-22.37,0,*7A
1508000645.18,21853,14.25,74722.0,3.01,-21.23,-22.17,0,*76
1508000646.41,21854,14.25,74720.3,3.01,-21.13,-22.17,0,*72
1508000647.63,21855,14.25,74720.5,2.97,-21.47,-22.41,0,*7F
1508000648.86,21856,14.25,74724.5,2.97,-21.43,-22.37,0,*79
1508000650.08,21857,14.25,74726.3,2.97,-21.13,-22.07,0,*7E
1508000651.28,21858,14.25,74722.5,3.01,-20.93,-21.93,0,*78
1508000652.48,21859,14.25,74724.3,3.01,-21.09,-22.03,0,*71
1508000653.7,21860,14.25,74720.3,3.01,-21.33,-22.37,0,*75
1508000654.93,21861,14.25,74722.8,3.01,-21.33,-22.27,0,*75
1508000656.12,21862,14.25,74724.5,3.01,-21.43,-22.27,0,*71
1508000657.32,21863,14.25,74722.5,3.01,-21.47,-22.41,0,*74
1508000658.51,21864,14.25,74724.0,3.01,-21.63,-22.41,0,*75
1508000659.7,21865,14.25,74722.5,3.01,-21.63,-22.41,0,*74
1508000660.92,21866,14.25,74722.5,3.01,-21.57,-22.41,0,*70
1508000662.11,21867,14.25,74724.0,3.01,-21.43,-22.41,0,*74
1508000663.34,21868,14.25,74724.5,3.01,-21.23,-22.27,0,*7D
1508000664.53,21869,14.25,74724.5,3.01,-21.43,-22.37,0,*7B
1508000665.78,21870,14.25,74724.5,2.97,-21.57,-22.41,0,*79
1508000667.01,21871,14.25,74720.8,3.01,-21.33,-22.27,0,*74
1508000668.23,21872,14.25,74726.0,3.01,-21.27,-22.27,0,*72
1508000669.45,21873,14.25,74726.3,3.01,-21.57,-22.41,0,*74
1508000670.7,21874,14.25,74722.5,2.97,-21.57,-22.53,0,*7E
1508000671.93,21875,14.25,74726.3,3.01,-21.57,-22.57,0,*75
1508000673.15,21876,14.25,74724.3,3.01,-21.57,-22.41,0,*71
1508000674.37,21877,14.25,74724.0,2.97,-21.47,-22.41,0,*7F
1508000675.57,21878,14.25,74722.3,3.01,-21.77,-22.83,0,*73
1508000676.8,21879,14.25,74722.3,2.97,-21.73,-22.57,0,*71
1508000678.02,21880,14.25,74726.0,3.01,-21.77,-22.73,0,*7B
1508000679.25,21881,14.25,74724.8,2.97,-21.73,-22.83,0,*7F
1508000680.51,21882,14.25,74726.5,2.97,-21.57,-22.53,0,*77
1508000681.73,21883,14.25,74724.5,2.97,-21.43,-22.37,0,*71
1508000682.95,21884,14.25,74724.8,2.97,-21.63,-22.57,0,*72
1508000684.15,21885,14.25,74722.8,3.01,-21.47,-22.53,0,*7F
1508000685.38,21886,14.25,74726.8,3.01,-21.33,-22.27,0,*7C
1508000686.61,21887,14.25,74722.5,2.97,-21.63,-22.53,0,*75
1508000687.8,21888,14.25,74726.3,3.01,-21.63,-22.41,0,*77
1508000689.05,21889,14.25,74724.0,2.97,-21.27,-22.27,0,*78
1508000690.31,21890,14.25,74722.5,2.97,-21.27,-22.27,0,*70
1508000691.53,21891,14.25,74720.8,2.97,-21.63,-22.57,0,*76
1508000692.78,21892,14.25,74716.3,3.01,-21.87,-22.73,0,*77
1508000694.04,21893,14.25,74714.8,2.97,-21.87,-22.83,0,*77
1508000695.24,21894,14.25,74714.0,3.01,-21.77,-22.83,0,*71
1508000696.5,21895,14.25,74712.5,2.97,-21.87,-22.83,0,*71
1508000697.75,21896,14.25,74712.5,2.97,-21.77,-22.73,0,*72
1508000699.01,21897,14.25,74710.3,2.97,-21.87,-22.83,0,*73
1508000700.26,21898,14.25,74710.0,2.97,-21.57,-22.53,0,*7C
1508000701.45,21899,14.25,74708.5,3.01,-21.47,-22.41,0,*71
1508000702.68,21900,14.25,74712.0,2.97,-21.73,-22.57,0,*7E
1508000703.91,21901,14.25,74710.0,2.97,-21.73,-22.67,0,*7C
1508000705.14,21902,14.25,74712.8,2.97,-21.63,-22.57,0,*7D
1508000706.36,21903,14.25,74714.3,2.97,-21.63,-22.67,0,*7F
1508000707.62,21904,14.25,74712.3,2.97,-21.93,-22.73,0,*72
1508000708.87,21905,14.25,74716.5,2.97,-21.87,-22.67,0,*73
1508000710.1,21906,14.25,74718.5,2.97,-21.73,-22.53,0,*7C
1508000711.33,21907,14.25,74716.0,2.95,-21.47,-22.47,0,*7D
1508000712.56,21908,14.25,74714.5,2.95,-21.63,-22.47,0,*74
1508000713.81,21909,14.25,74716.0,2.97,-21.57,-22.37,0,*77
1508000715.05,21910,14.25,74718.5,2.97,-21.57,-22.41,0,*7E
1508000716.28,21911,14.25,74722.5,2.97,-21.63,-22.53,0,*7B
1508000717.53,21912,14.25,74722.0,2.97,-21.57,-22.53,0,*7F
1508000718.81,21913,14.25,74716.3,2.97,-21.27,-22.21,0,*7C
1508000720.0,21914,14.25,74716.3,3.01,-21.43,-22.37,0,*70
1508000721.25,21915,14.25,74712.3,2.97,-21.57,-22.41,0,*7B
1508000722.5,21916,14.25,74714.5,2.97,-21.73,-22.73,0,*7F
1508000723.75,21917,14.25,74714.0,2.97,-21.93,-22.73,0,*70
1508000724.98,21918,14.25,74712.8,2.97,-21.93,-22.83,0,*70
1508000726.21,21919,14.25,74714.5,3.01,-21.87,-22.83,0,*7A
1508000727.44,21920,14.25,74714.8,2.97,-21.73,-22.67,0,*7F
1508000728.64,21921,14.25,74712.0,2.95,-21.63,-22.57,0,*7E
1508000729.86,21922,14.25,74708.0,2.95,-21.39,-22.47,0,*73
1508000731.12,21923,14.25,74708.0,2.95,-21.53,-22.47,0,*7E
1508000732.35,21924,14.25,74710.3,2.97,-21.63,-22.67,0,*7A
1508000733.6,21925,14.25,74714.3,2.97,-21.77,-22.73,0,*7B
1508000734.82,21926,14.25,74712.8,2.93,-21.47,-22.57,0,*79
1508000736.07,21927,14.25,74714.8,2.97,-21.73,-22.73,0,*7D
1508000737.3,21928,14.25,74712.0,2.97,-21.93,-22.87,0,*77
1508000738.58,21929,14.25,74714.3,2.97,-21.87,-22.73,0,*78
1508000739.83,21930,14.25,74712.3,2.97,-21.57,-22.53,0,*7F
1508000741.06,21931,14.25,74718.8,2.95,-21.77,-22.77,0,*78
1508000742.29,21932,14.25,74718.0,2.95,-21.77,-22.77,0,*7B
1508000743.49,21933,14.25,74718.3,2.95,-21.93,-22.87,0,*7F
1508000744.68,21934,14.25,74716.3,2.95,-21.93,-22.87,0,*78
1508000745.93,21935,14.25,74718.3,2.95,-21.83,-22.77,0,*77
1508000747.18,21936,14.25,74716.3,2.95,-21.67,-22.73,0,*7A
1508000748.4,21937,14.25,74714.8,2.95,-21.77,-22.73,0,*7A
1508000749.62,21938,14.25,74714.3,2.95,-21.77,-22.73,0,*75
1508000750.83,21939,14.25,74716.0,2.95,-21.93,-22.93,0,*70
1508000752.08,21940,14.25,74720.5,2.95,-21.83,-22.77,0,*75
1508000753.3,21941,14.25,74718.3,2.95,-21.67,-22.57,0,*7C
1508000754.5,21942,14.25,74714.8,2.95,-21.93,-22.87,0,*79
1508000755.75,21943,14.25,74716.5,2.95,-21.83,-22.77,0,*76
1508000756.98,21944,14.25,74718.0,2.95,-21.97,-22.93,0,*7E
1508000758.2,21945,14.25,74714.0,2.93,-21.93,-22.93,0,*7D
1508000759.43,21946,14.25,74718.5,2.95,-21.83,-22.87,0,*7C
1508000760.67,21947,14.25,74718.8,2.93,-21.97,-22.87,0,*7E
1508000761.92,21948,14.25,74716.0,2.93,-21.93,-22.77,0,*7A
1508000763.14,21949,14.25,74720.3,2.93,-21.93,-22.87,0,*74
1508000764.41,21950,14.25,74716.3,2.93,-21.83,-22.73,0,*76
1508000765.7,21951,14.25,74714.0,2.93,-21.53,-22.47,0,*7D
1508000766.97,21952,14.19,74712.3,2.93,-21.83,-22.77,0,*70
1508000768.19,21953,14.25,74718.0,2.93,-21.93,-22.87,0,*7F
1508000769.4,21954,14.25,74716.3,2.95,-21.93,-22.93,0,*7B
1508000770.62,21955,14.25,74720.3,2.93,-21.63,-22.57,0,*7B
1508000771.84,21956,14.25,74722.0,2.95,-21.77,-22.73,0,*7D
1508000773.11,21957,14.25,74722.0,2.93,-21.67,-22.73,0,*7B
1508000774.33,21958,14.25,74718.0,2.93,-21.47,-22.41,0,*77
1508000775.52,21959,14.25,74714.0,2.95,-21.63,-22.57,0,*71
1508000776.77,21960,14.25,74712.8,2.95,-21.83,-22.77,0,*77
1508000778.0,21961,14.25,74716.0,2.93,-21.77,-22.63,0,*7E
1508000779.27,21962,14.25,74718.8,2.93,-21.83,-22.77,0,*73
1508000780.52,21963,14.25,74720.0,2.93,-21.93,-22.73,0,*77
1508000781.79,21964,14.25,74714.3,2.93,-21.83,-22.77,0,*75
1508000783.02,21965,14.25,74712.3,2.93,-21.77,-22.57,0,*7D
1508000784.27,21966,14.25,74716.5,2.93,-21.67,-22.57,0,*7F
1508000785.49,21967,14.25,74716.0,2.93,-21.77,-22.57,0,*7F
1508000786.78,21968,14.25,74716.3,2.93,-21.53,-22.47,0,*77
1508000788.0,21969,14.25,74716.8,2.93,-21.39,-22.27,0,*7C
1508000789.24,21970,14.25,74716.5,2.93,-21.39,-22.21,0,*72
1508000790.46,21971,14.25,74718.5,2.93,-21.63,-22.57,0,*7D
1508000791.68,21972,14.25,74716.8,2.95,-21.39,-22.31,0,*77
1508000792.93,21973,14.25,74712.5,2.95,-21.27,-22.21,0,*78
1508000794.18,21974,14.25,74714.0,2.93,-21.39,-22.31,0,*77
1508000795.43,21975,14.25,74718.3,2.93,-21.63,-22.47,0,*78
1508000796.65,21976,14.25,74712.3,2.95,-21.39,-22.31,0,*73
1508000797.9,21977,14.25,74716.3,2.93,-21.27,-22.27,0,*7C
1508000799.15,21978,14.25,74712.0,2.93,-21.47,-22.47,0,*73
1508000800.41,21979,14.25,74716.5,2.95,-21.67,-22.47,0,*76
1508000801.64,21980,14.25,74716.3,2.95,-21.83,-22.63,0,*7C
1508000802.88,21981,14.25,74718.5,2.93,-21.77,-22.73,0,*71
1508000804.13,21982,14.25,74714.8,2.95,-21.83,-22.73,0,*7F
1508000805.35,21983,14.25,74714.5,2.93,-21.77,-22.57,0,*75
1508000806.58,21984,14.25,74714.8,2.95,-21.63,-22.47,0,*70
1508000807.85,21985,14.25,74714.8,2.93,-21.83,-22.73,0,*7E
1508000809.07,21986,14.25,74714.8,2.93,-21.77,-22.63,0,*77
1508000810.32,21987,14.25,74712.5,2.93,-21.53,-22.41,0,*70
1508000811.6,21988,14.25,74716.5,2.93,-21.53,-22.47,0,*79
1508000812.85,21989,14.25,74718.5,2.93,-21.83,-22.63,0,*73
1508000814.12,21990,14.25,74718.8,2.93,-21.83,-22.73,0,*7A
1508000815.35,21991,14.25,74716.3,2.93,-21.77,-22.63,0,*71
1508000816.6,21992,14.25,74718.5,2.93,-21.77,-22.47,0,*74
1508000817.79,21993,14.25,74718.8,2.95,-21.63,-22.41,0,*70
1508000819.02,21994,14.25,74716.8,2.95,-21.63,-22.47,0,*71
1508000820.3,21995,14.25,74718.5,2.93,-21.67,-22.47,0,*72
1508000821.53,21996,14.25,74716.5,2.95,-21.67,-22.63,0,*71
1508000822.8,21997,14.25,74718.0,2.93,-21.83,-22.73,0,*7D
1508000824.02,21998,14.25,74714.5,2.93,-21.77,-22.57,0,*7F
1508000825.27,21999,14.25,74716.3,2.93,-21.63,-22.47,0,*7A
1508000826.56,22000,14.25,74716.8,2.93,-21.53,-22.47,0,*73
1508000827.84,22001,14.19,74712.8,2.93,-21.53,-22.47,0,*72
1508000829.06,22002,14.25,74722.5,2.93,-21.63,-22.63,0,*74
1508000830.28,22003,14.25,74720.3,2.93,-21.63,-22.57,0,*72
1508000831.53,22004,14.25,74724.8,2.93,-21.53,-22.41,0,*71
1508000832.75,22005,14.25,74720.5,2.93,-21.47,-22.41,0,*75
1508000834.0,22006,14.25,74724.8,2.93,-21.63,-22.47,0,*76
1508000835.26,22007,14.25,74720.8,2.95,-21.67,-22.47,0,*75
1508000836.47,22008,14.25,74720.5,2.93,-21.47,-22.41,0,*78
1508000837.69,22009,14.25,74724.5,2.95,-21.33,-22.11,0,*79
1508000838.95,22010,14.25,74718.8,2.93,-21.63,-22.47,0,*71
1508000840.17,22011,14.25,74720.8,2.93,-21.77,-22.63,0,*73
1508000841.42,22012,14.25,74720.0,2.93,-21.53,-22.57,0,*71
1508000842.67,22013,14.25,74722.0,2.93,-21.63,-22.47,0,*72
1508000843.92,22014,14.25,74716.8,2.93,-21.53,-22.41,0,*70
1508000845.21,22015,14.25,74720.3,2.93,-21.53,-22.47,0,*77
1508000846.43,22016,14.19,74716.0,2.93,-21.77,-22.57,0,*73
1508000847.68,22017,14.19,74716.5,2.93,-21.83,-22.57,0,*79
1508000848.96,22018,14.25,74720.8,2.93,-21.67,-22.47,0,*7D
1508000850.21,22019,14.25,74716.8,2.93,-21.67,-22.57,0,*7D
1508000851.46,22020,14.25,74722.0,2.93,-21.67,-22.63,0,*70
1508000852.71,22021,14.25,74720.3,2.93,-21.83,-22.63,0,*7B
1508000853.94,22022,14.25,74720.3,2.91,-21.83,-22.63,0,*7A
1508000855.15,22023,14.19,74716.3,2.91,-21.73,-22.63,0,*74
1508000856.34,22024,14.19,74716.0,2.91,-21.43,-22.37,0,*71
1508000857.57,22025,14.25,74722.8,2.95,-21.39,-22.31,0,*7F
1508000858.81,22026,14.25,74720.8,2.93,-21.33,-22.27,0,*77
1508000860.04,22027,14.25,74726.8,2.91,-21.67,-22.53,0,*76
1508000861.25,22028,14.25,74724.0,2.91,-21.73,-22.67,0,*7B
1508000862.47,22029,14.25,74726.8,2.91,-21.83,-22.67,0,*75
1508000863.68,22030,14.25,74724.3,2.91,-21.73,-22.63,0,*76
1508000864.93,22031,14.25,74724.8,2.91,-21.57,-22.47,0,*77
1508000866.17,22032,14.25,74724.5,2.91,-21.67,-22.53,0,*72
1508000867.37,22033,14.25,74724.5,2.91,-21.39,-22.27,0,*7B
1508000868.56,22034,14.25,74724.0,2.91,-21.43,-22.37,0,*70
1508000869.79,22035,14.25,74720.8,2.91,-21.39,-22.31,0,*7A
1508000871.07,22036,14.19,74720.3,2.93,-21.27,-22.17,0,*70
1508000872.29,22037,14.25,74728.5,2.91,-21.33,-22.27,0,*75
1508000873.54,22038,14.25,74726.8,2.93,-21.03,-21.93,0,*77
1508000874.79,22039,14.19,74720.0,2.93,-20.43,-21.33,0,*79
1508000876.07,22040,14.25,74724.8,2.93,-20.99,-21.83,0,*7B
1508000877.34,22041,14.25,74720.0,2.93,-21.27,-22.21,0,*75
1508000878.59,22042,14.19,74722.8,2.93,-21.47,-22.31,0,*71
1508000879.81,22043,14.25,74726.5,2.93,-21.47,-22.27,0,*77
1508000881.0,22044,14.25,74722.8,2.95,-21.13,-22.07,0,*75
1508000882.25,22045,14.25,74718.3,2.95,-21.03,-21.83,0,*7A
1508000883.5,22046,14.25,74722.0,2.93,-20.99,-21.77,0,*76
1508000884.7,22047,14.25,74718.8,2.95,-21.39,-22.27,0,*7C
1508000885.9,22048,14.19,74722.0,2.95,-21.17,-22.07,0,*7D
1508000887.09,22049,14.19,74722.5,2.95,-21.13,-22.07,0,*78
1508000888.31,22050,14.25,74726.3,2.95,-21.13,-21.97,0,*7A
1508000889.56,22051,14.25,74726.5,2.95,-21.03,-21.83,0,*7F
1508000890.76,22052,14.25,74722.5,2.95,-21.17,-22.07,0,*76
1508000891.98,22053,14.25,74722.0,2.95,-21.13,-21.97,0,*79
1508000893.2,22054,14.25,74722.8,2.95,-21.03,-21.93,0,*7B
1508000894.4,22055,14.25,74720.8,2.95,-21.13,-22.07,0,*75
1508000895.6,22056,14.25,74720.8,2.95,-21.17,-22.11,0,*75
1508000896.82,22057,14.25,74726.5,2.95,-21.27,-22.11,0,*77
1508000898.05,22058,14.25,74726.8,2.95,-21.47,-22.31,0,*7C
1508000899.24,22059,14.25,74724.8,2.95,-21.39,-22.27,0,*73
1508000900.44,22060,14.25,74720.3,2.95,-21.17,-22.11,0,*70